This demonstration page uses our WeatherBlox Daily Observations layout. Learn more.

Left ArrowRight Arrow

38.88101, -77.10428

Hourly Observations for April 6, 2021

Temp ( °F °C ) Dew Point ( °F °C ) Humidity (%) Winds ( mph kmh ) Pressure ( in mb ) Visibility ( mi km ) Precip ( " mm )
12:52 am 00:52 Cloudy 59 15 46 7.8 62 62 S 3 6 29.98 1015 10 16 0.00 0.00
1:52 am 01:52 Cloudy 58 14.4 46 7.8 65 65 Calm 29.97 1015 10 16 0.00 0.00
2:52 am 02:52 Mostly Cloudy 55 12.8 50 10 83 83 NNE 5 7 29.96 1015 10 16 0.00 0.00
3:52 am 03:52 Partly Cloudy 57 13.9 45 7.2 64 64 N 5 7 29.97 1015 10 16 0.00 0.00
4:52 am 04:52 Mostly Cloudy 58 14.4 40 4.4 51 51 Calm 29.98 1015 10 16 0.00 0.00
5:52 am 05:52 Partly Cloudy 58 14.4 38 3.3 48 48 ENE 3 6 29.98 1015 10 16 0.00 0.00
6:52 am 06:52 Mostly Sunny 56 13.3 36 2.2 47 47 NNE 5 7 30.01 1016 10 16 0.00 0.00
7:52 am 07:52 Partly Cloudy 56 13.3 39 3.9 53 53 ENE 6 9 30.03 1017 10 16 0.00 0.00
8:52 am 08:52 Partly Cloudy 60 15.6 38 3.3 44 44 NE 6 9 30.05 1018 10 16 0.00 0.00
9:52 am 09:52 Mostly Sunny 62 16.7 33 0.6 34 34 ENE 3 6 30.06 1018 10 16 0.00 0.00
10:52 am 10:52 Mostly Sunny 65 18.3 30 -1.1 27 27 ENE 6 9 30.06 1018 10 16 0.00 0.00
11:52 am 11:52 Mostly Sunny 66 18.9 31 -0.6 27 27 E 3 6 30.04 1017 10 16 0.00 0.00
12:52 pm 12:52 Partly Cloudy 67 19.4 33 0.6 28 28 E 3 6 30.01 1016 10 16 0.00 0.00
1:52 pm 13:52 Partly Cloudy 70 21.1 34 1.1 27 27 ESE 3 6 29.98 1015 10 16 0.00 0.00
2:52 pm 14:52 Partly Cloudy 71 21.7 36 2.2 28 28 undefined N/A 29.95 1014 10 16 0.00 0.00
3:52 pm 15:52 Partly Cloudy 76 24.4 44 6.7 32 32 NNW 13 20 29.93 1014 10 16 0.00 0.00
4:52 pm 16:52 Partly Cloudy 77 25 45 7.2 32 32 Calm 29.92 1013 10 16 0.00 0.00
5:52 pm 17:52 Mostly Sunny 75 23.9 46 7.8 36 36 Calm 29.92 1013 10 16 0.00 0.00
6:52 pm 18:52 Mostly Sunny 73 22.8 44 6.7 35 35 E 9 15 29.93 1014 10 16 0.00 0.00
7:52 pm 19:52 Mostly Clear 67 19.4 40 4.4 37 37 SSE 6 9 29.94 1014 10 16 0.00 0.00
8:52 pm 20:52 Mostly Clear 67 19.4 38 3.3 35 35 Calm 29.96 1015 10 16 0.00 0.00
9:52 pm 21:52 Mostly Clear 65 18.3 38 3.3 37 37 S 6 9 29.97 1015 10 16 0.00 0.00
10:52 pm 22:52 Mostly Clear 62 16.7 41 5 46 46 S 6 9 29.98 1015 10 16 0.00 0.00
11:52 pm 23:52 Mostly Clear 61 16.1 42 5.6 50 50 S 5 7 29.98 1015 10 16 0.00 0.00

Powered by AerisWeather